Augusta Bush, GA

4:16 PM EST on January 20, 2018 (GMT -0500)
Augusta Regional At Bush

Weather History for KAGS - March, 2013

Change the Weather History Date:

Tuesday, March 12, 2013

  Actual Average Record
Temperature  
Mean Temperature 61 °F 55 °F  
Max Temperature 70 °F 69 °F 88 °F (1955)
Min Temperature 52 °F 41 °F 23 °F (1969)
Degree Days  
Heating Degree Days 4 10  
Month to date heating degree days 198 139  
Since 1 July heating degree days 2002 2171  
Cooling Degree Days 0 0  
Month to date cooling degree days 0 0  
Year to date cooling degree days 15 3  
Growing Degree Days 12 (Base 50)    
Moisture  
Dew Point 49 °F    
Average Humidity 62    
Maximum Humidity 93    
Minimum Humidity 31    
Precipitation  
Precipitation 0.20 in 0.14 in 3.45 in (1980)
Month to date precipitation 0.45 1.73  
Year to date precipitation 10.45 9.56  
Sea Level Pressure  
Sea Level Pressure 29.87 in    
Wind  
Wind Speed 10 mph (West)    
Max Wind Speed 17 mph    
Max Gust Speed 23 mph    
Visibility 9 miles    
Events Rain    
T = Trace of Precipitation, MM = Missing Value Source: NWS Daily Summary

Daily Weather History Graph

Daily Weather History Graph

Search for Another Location

Airport or City:

Trip Planner

Search our weather history database for the weather conditions in past years. The results will help you decide how hot, cold, wet, or windy it might be!

Date:

Astronomy

Mar. 12, 2013 Rise Set
Actual Time 7:41 AM EDT 7:33 PM EDT
Civil Twilight 7:17 AM EDT 7:58 PM EDT
Nautical Twilight 6:48 AM EDT 8:27 PM EDT
Astronomical Twilight 6:19 AM EDT 8:56 PM EDT
Moon 7:52 AM EDT (3/12) 8:41 PM EDT (3/12)
Length of Visible Light 12h 41m
Length of Day
11h 51m
New Moon, 1% of the Moon is Illuminated
Mar 12
New Moon
Mar 19
First Quarter
Mar 27
Full
Apr 3
Last Quarter
Apr 10
New

Hourly Weather History & Observations

Time (EDT) Temp. Dew Point Humidity Pressure Visibility Wind Dir Wind Speed Gust Speed Precip Events Conditions
12:53 AM 63.0 °F 55.9 °F 78% 29.85 in 9.0 mi South 9.2 mph - 0.00 in Rain Light Rain
1:53 AM 61.0 °F 57.0 °F 87% 29.83 in 8.0 mi South 12.7 mph - 0.06 in Rain Light Rain
2:53 AM 60.1 °F 57.9 °F 93% 29.83 in 6.0 mi South 6.9 mph - 0.03 in Rain Light Rain
3:53 AM 60.1 °F 57.9 °F 93% 29.81 in 8.0 mi South 9.2 mph - 0.07 in Rain Light Rain
4:53 AM 60.1 °F 57.9 °F 93% 29.80 in 7.0 mi SSW 8.1 mph - 0.04 in Rain Light Rain
5:08 AM 60.8 °F 57.2 °F 88% 29.80 in 10.0 mi South 5.8 mph - 0.01 in Rain Light Rain
5:46 AM 60.8 °F 57.2 °F 88% 29.79 in 10.0 mi South 8.1 mph - 0.01 in   Overcast
5:53 AM 60.1 °F 57.9 °F 93% 29.79 in 10.0 mi South 9.2 mph - 0.01 in   Overcast
6:25 AM 60.8 °F 57.2 °F 88% 29.80 in 7.0 mi SSW 6.9 mph - 0.00 in   Overcast
6:53 AM 60.1 °F 57.9 °F 93% 29.80 in 3.0 mi SSW 6.9 mph - 0.00 in Rain Light Rain
7:30 AM 60.8 °F 57.2 °F 88% 29.83 in 10.0 mi WSW 5.8 mph - 0.00 in Rain Light Rain
7:51 AM 59.0 °F 55.4 °F 88% 29.83 in 10.0 mi WNW 9.2 mph - 0.00 in   Overcast
7:53 AM 59.0 °F 55.0 °F 87% 29.83 in 10.0 mi WNW 11.5 mph - 0.00 in   Overcast
8:19 AM 57.2 °F 55.4 °F 94% 29.85 in 10.0 mi WNW 10.4 mph - N/A   Overcast
8:33 AM 57.2 °F 53.6 °F 88% 29.85 in 10.0 mi WNW 9.2 mph - N/A   Overcast
8:43 AM 57.2 °F 53.6 °F 88% 29.86 in 10.0 mi West 8.1 mph - N/A   Overcast
8:53 AM 55.9 °F 54.0 °F 93% 29.86 in 10.0 mi West 11.5 mph - N/A   Overcast
9:53 AM 55.0 °F 52.0 °F 89% 29.89 in 10.0 mi West 13.8 mph - N/A   Overcast
10:10 AM 53.6 °F 51.8 °F 94% 29.90 in 10.0 mi West 15.0 mph - N/A   Overcast
10:53 AM 54.0 °F 48.0 °F 80% 29.91 in 10.0 mi WNW 9.2 mph - N/A   Mostly Cloudy
10:55 AM 55.4 °F 48.2 °F 77% 29.91 in 10.0 mi WNW 10.4 mph - N/A   Mostly Cloudy
11:07 AM 55.4 °F 48.2 °F 77% 29.90 in 10.0 mi WSW 5.8 mph - N/A   Mostly Cloudy
11:14 AM 55.4 °F 46.4 °F 72% 29.90 in 10.0 mi West 8.1 mph - N/A   Mostly Cloudy
11:36 AM 57.2 °F 46.4 °F 67% 29.90 in 10.0 mi Variable 3.5 mph - N/A   Clear
11:53 AM 57.9 °F 46.0 °F 65% 29.91 in 10.0 mi WNW 8.1 mph - N/A   Clear
12:53 PM 62.1 °F 45.0 °F 53% 29.89 in 10.0 mi NW 3.5 mph - N/A   Clear
1:53 PM 64.9 °F 44.1 °F 47% 29.88 in 10.0 mi WNW 9.2 mph - N/A   Clear
2:53 PM 66.9 °F 43.0 °F 42% 29.88 in 10.0 mi WNW 10.4 mph - N/A   Clear
3:53 PM 68.0 °F 41.0 °F 37% 29.87 in 10.0 mi WNW 11.5 mph 16.1 mph N/A   Clear
4:53 PM 70.0 °F 39.0 °F 32% 29.87 in 10.0 mi WNW 13.8 mph 19.6 mph N/A   Clear
5:53 PM 69.1 °F 37.0 °F 31% 29.88 in 10.0 mi WNW 11.5 mph - N/A   Clear
6:53 PM 66.9 °F 36.0 °F 32% 29.90 in 10.0 mi WNW 9.2 mph - N/A   Clear
7:53 PM 61.0 °F 36.0 °F 39% 29.93 in 10.0 mi West 8.1 mph - N/A   Clear
8:53 PM 57.0 °F 37.0 °F 47% 29.95 in 10.0 mi West 8.1 mph - N/A   Clear
9:53 PM 57.9 °F 35.1 °F 42% 29.98 in 10.0 mi WNW 10.4 mph - N/A   Clear
10:53 PM 55.9 °F 34.0 °F 44% 29.99 in 10.0 mi NW 12.7 mph - N/A   Clear
11:53 PM 54.0 °F 33.1 °F 45% 30.02 in 10.0 mi NW 13.8 mph - N/A   Clear